Terminal Aerodrome Forecast
Issued by NWS

Home | Current Version | Previous Version | Graphics & Text | Print | Product List | Glossary Off
Versions: 1 2 3 4 5 6 7 8 9 10 11 12 13 14 15 16 17 18 19 20 21 22 23 24 25 26 27 28 29 30 31 32 33 34 35 36 37 38 39 40 41 42 43 44 45

000
FTUS43 KDDC 241724
TAFGCK
TAF
KGCK 241724Z 2418/2518 06012G18KT P6SM FEW050 SCT250
     FM242000 36024G32KT P6SM VCSH BKN070
     FM250000 35025G35KT P6SM BKN025
     FM250400 35015G25KT P6SM BKN020
     FM250900 34015KT P6SM SCT050=

USA.gov is the U.S. government's official web portal to all federal, state and local government web resources and services.